AC0YE Weather Reports


time (UTC)temp
C
wind
direction
speed
KPH
gust
KPH
rain 1hr
cm
rain 24hr
cm
rain mn
cm
humidity
%
barometer
mb
20260906091016 21 0.0 3.2 0.00 0.00 0.00 94 1017.6
20260906090515 21 0.0 1.6 0.00 0.00 0.00 93 1017.5
20260906090015 21 0.0 3.2 0.00 0.00 0.00 93 1017.5
20260906085516 21 90 1.6 6.4 0.00 0.00 0.00 93 1017.5
20260906085015 22 113 1.6 8.0 0.00 0.00 0.00 93 1017.4
20260906084515 22 90 1.6 6.4 0.00 0.00 0.00 93 1017.6
20260906084035 22 90 1.6 4.8 0.00 0.00 0.00 93 1017.5
20260906083535 22 113 1.6 9.7 0.00 0.00 0.00 93 1017.5
20260906083015 22 90 1.6 3.2 0.00 0.00 0.00 93 1017.6
20260906082515 22 90 1.6 11.3 0.00 0.00 0.00 93 1017.5
20260906082035 22 68 1.6 9.7 0.00 0.00 0.00 93 1017.6
20260906081515 22 90 3.2 12.9 0.00 0.00 0.00 93 1017.6
20260906081015 22 90 1.6 11.3 0.00 0.00 0.00 93 1017.6
20260906080515 22 90 1.6 6.4 0.00 0.00 0.00 93 1017.8
20260906080015 22 0.0 3.2 0.00 0.00 0.00 93 1017.8
20260906075515 22 0.0 4.8 0.00 0.00 0.00 93 1017.6
20260906075015 22 90 1.6 6.4 0.00 0.00 0.00 93 1017.8
20260906074515 22 0.0 3.2 0.00 0.00 0.00 93 1017.9
20260906074015 22 0.0 3.2 0.00 0.00 0.00 93 1017.7
20260906073515 22 68 1.6 4.8 0.00 0.00 0.00 93 1017.8
20260906073035 22 90 1.6 4.8 0.00 0.00 0.00 93 1017.8
20260906072515 22 0.0 3.2 0.00 0.00 0.00 93 1017.8
20260906072015 22 68 1.6 6.4 0.00 0.00 0.00 92 1018.0
20260906071515 22 0.0 4.8 0.00 0.00 0.00 92 1018.0
20260906071017 22 45 1.6 11.3 0.00 0.00 0.00 92 1018.1
20260906070517 22 68 1.6 11.3 0.00 0.00 0.00 92 1018.1
20260906070017 22 0.0 3.2 0.00 0.00 0.00 92 1018.1
20260906065517 22 68 1.6 6.4 0.00 0.00 0.00 92 1018.1
20260906065037 22 0.0 4.8 0.00 0.00 0.00 92 1018.2
20260906064517 22 0.0 3.2 0.00 0.00 0.00 92 1018.1
20260906064017 22 45 1.6 8.0 0.00 0.00 0.00 92 1018.1
20260906063517 22 68 1.6 6.4 0.00 0.00 0.00 92 1018.2
20260906063017 22 0.0 4.8 0.00 0.00 0.00 92 1018.2
20260906062517 22 0.0 6.4 0.00 0.00 0.00 92 1018.2
20260906062017 22 0.0 6.4 0.00 0.00 0.00 92 1018.2
20260906061517 22 0.0 3.2 0.00 0.00 0.00 92 1018.1
20260906061017 22 0.0 1.6 0.00 0.00 0.00 92 1018.0
20260906060537 22 0.0 1.6 0.00 0.00 0.00 92 1018.0
20260906060017 22 0.0 1.6 0.00 0.00 0.00 92 1017.9
20260906055517 22 0.0 3.2 0.00 0.00 0.00 92 1018.0
20260906055017 22 0.0 4.8 0.00 0.00 0.00 92 1018.0
20260906054517 22 0.0 3.2 0.00 0.00 0.00 92 1017.8
20260906054017 22 0.0 3.2 0.00 0.00 0.00 92 1017.9
20260906053517 22 45 1.6 4.8 0.00 0.00 0.00 92 1017.8
20260906053017 22 0.0 4.8 0.00 0.00 0.00 92 1017.8
20260906052517 22 0.0 3.2 0.00 0.00 0.00 92 1017.7
20260906052017 22 45 1.6 6.4 0.00 0.00 0.00 92 1017.9
20260906051517 23 68 1.6 8.0 0.00 0.00 0.00 92 1017.7
20260906051037 23 45 1.6 6.4 0.00 0.00 0.00 91 1017.6
20260906050537 23 0.0 3.2 0.00 0.00 0.00 91 1017.8
20260906050017 23 0.0 3.2 0.00 0.00 0.00 91 1017.5
20260906045515 23 45 1.6 4.8 0.00 0.00 0.00 91 1017.7
20260906045015 23 45 1.6 6.4 0.00 0.00 0.00 91 1017.7
20260906044516 23 45 3.2 6.4 0.00 0.00 0.00 90 1017.8
20260906044015 23 45 1.6 8.0 0.00 0.00 0.00 90 1017.8
20260906043517 23 68 1.6 4.8 0.00 0.00 0.00 90 1017.7
20260906043017 23 45 1.6 6.4 0.00 0.00 0.00 90 1017.6
20260906042517 23 45 3.2 8.0 0.00 0.00 0.00 90 1017.8
20260906042037 23 45 3.2 6.4 0.00 0.00 0.00 89 1017.7
20260906041517 23 23 1.6 3.2 0.00 0.00 0.00 89 1017.6
20260906041017 23 0.0 4.8 0.00 0.00 0.00 89 1017.6
20260906040517 23 0.0 0.0 0.00 0.00 0.00 89 1017.5
20260906040017 23 0.0 0.0 0.00 0.00 0.00 89 1017.4
20260906035537 23 0.0 3.2 0.00 0.00 0.00 89 1017.3
20260906035017 23 0.0 4.8 0.00 0.00 0.00 89 1017.3
20260906034515 23 68 1.6 4.8 0.00 0.00 0.00 89 1017.4
20260906034017 23 45 1.6 6.4 0.00 0.00 0.00 89 1017.4
20260906033517 23 68 1.6 4.8 0.00 0.00 0.00 88 1017.3
20260906033017 23 68 1.6 4.8 0.00 0.00 0.00 88 1017.1
20260906032517 23 45 1.6 8.0 0.00 0.00 0.00 88 1017.2
20260906032017 23 68 1.6 8.0 0.00 0.00 0.00 88 1017.2
20260906031517 23 68 1.6 6.4 0.00 0.00 0.00 88 1017.2
20260906031017 24 45 3.2 8.0 0.00 0.00 0.00 88 1017.2
20260906030517 24 0.0 3.2 0.00 0.00 0.00 88 1017.2
20260906030017 24 23 1.6 6.4 0.00 0.00 0.00 88 1017.2
20260906025557 24 23 1.6 4.8 0.00 0.00 0.00 88 1017.1
20260906025017 24 68 1.6 4.8 0.00 0.00 0.00 88 1017.1
20260906024517 24 68 1.6 3.2 0.00 0.00 0.00 87 1016.9
20260906024017 24 45 1.6 8.0 0.00 0.00 0.00 87 1016.7
20260906023517 24 68 1.6 6.4 0.00 0.00 0.00 87 1016.5
20260906023037 25 45 1.6 4.8 0.00 0.00 0.00 87 1016.5
20260906022537 25 45 3.2 6.4 0.00 0.00 0.00 86 1016.4
20260906022017 25 68 1.6 9.7 0.00 0.00 0.00 86 1016.5
20260906021517 25 68 1.6 6.4 0.00 0.00 0.00 86 1016.3
20260906021037 25 68 1.6 9.7 0.00 0.00 0.00 86 1016.1
20260906020517 25 45 3.2 8.0 0.00 0.00 0.00 86 1016.0
20260906020017 25 45 1.6 8.0 0.00 0.00 0.00 87 1015.9
20260906015557 25 68 1.6 6.4 0.00 0.00 0.00 87 1015.8
20260906015017 25 0.0 3.2 0.00 0.00 0.00 87 1015.7
20260906014517 25 0.0 6.4 0.00 0.00 0.00 87 1015.7
20260906014017 25 0.0 3.2 0.00 0.00 0.00 86 1015.6
20260906013517 25 45 1.6 8.0 0.00 0.00 0.00 86 1015.6
20260906013017 25 68 1.6 6.4 0.00 0.00 0.00 86 1015.6
20260906012517 25 68 3.2 8.0 0.00 0.00 0.00 86 1015.5
20260906012017 25 68 3.2 6.4 0.00 0.00 0.00 86 1015.6
20260906011517 25 68 1.6 6.4 0.00 0.00 0.00 85 1015.5
20260906011017 26 90 3.2 11.3 0.00 0.00 0.00 85 1015.5
20260906010517 26 90 1.6 11.3 0.00 0.00 0.00 85 1015.4
20260906010017 26 68 3.2 6.4 0.00 0.00 0.00 84 1015.4
20260906005517 26 68 1.6 8.0 0.00 0.00 0.00 84 1015.5
20260906005017 26 68 1.6 8.0 0.00 0.00 0.00 84 1015.4
20260906004517 26 0.0 1.6 0.00 0.00 0.00 84 1015.4
20260906004017 26 0.0 3.2 0.00 0.00 0.00 83 1015.3
20260906003517 26 90 1.6 4.8 0.00 0.00 0.00 83 1015.2
20260906003017 26 0.0 1.6 0.00 0.00 0.00 83 1015.1
20260906002517 26 90 1.6 3.2 0.00 0.00 0.00 83 1015.2
20260906002017 26 0.0 3.2 0.00 0.00 0.00 82 1015.2
20260906001537 26 45 1.6 6.4 0.00 0.00 0.00 82 1015.2
20260906001017 26 45 1.6 6.4 0.00 0.00 0.00 82 1015.2
20260906000517 26 45 1.6 8.0 0.00 0.00 0.00 82 1015.1
20260906000017 26 90 1.6 4.8 0.00 0.00 0.00 81 1015.2
20260905235517 27 45 1.6 3.2 0.00 0.00 0.00 81 1015.3
20260905235017 27 68 3.2 9.7 0.00 0.00 0.00 81 1015.3
20260905234517 27 45 4.8 16.1 0.00 0.00 0.00 81 1015.2
20260905234017 27 45 3.2 11.3 0.00 0.00 0.00 81 1015.1
20260905233517 27 68 4.8 9.7 0.00 0.00 0.00 80 1015.1
20260905233017 27 45 3.2 8.0 0.00 0.00 0.00 80 1015.1
20260905232517 27 68 8.0 17.7 0.00 0.00 0.00 79 1015.1
20260905232017 27 45 6.4 14.5 0.00 0.00 0.00 79 1015.0
20260905231517 28 68 6.4 12.9 0.00 0.00 0.00 78 1015.1
20260905231017 28 68 4.8 12.9 0.00 0.00 0.00 79 1015.1
20260905230537 28 68 6.4 16.1 0.00 0.00 0.00 79 1015.1
20260905230017 28 45 8.0 16.1 0.00 0.00 0.00 79 1015.1
20260905225516 28 45 6.4 12.9 0.00 0.00 0.00 79 1015.0
20260905225017 28 45 8.0 16.1 0.00 0.00 0.00 78 1015.0
20260905224517 28 45 8.0 17.7 0.00 0.00 0.00 78 1014.8
20260905224017 28 45 9.7 17.7 0.00 0.00 0.00 78 1015.0
20260905223516 29 45 9.7 20.9 0.00 0.00 0.00 79 1014.9
20260905223037 29 45 6.4 19.3 0.00 0.00 0.00 78 1014.8
20260905222517 29 68 8.0 17.7 0.00 0.00 0.00 78 1014.9
20260905222017 30 45 8.0 16.1 0.00 0.00 0.00 78 1014.8
20260905221517 30 45 6.4 16.1 0.00 0.00 0.00 78 1014.8
20260905221017 30 45 6.4 12.9 0.00 0.00 0.00 78 1014.9
20260905220517 30 45 9.7 19.3 0.00 0.00 0.00 78 1014.9
20260905220017 30 45 6.4 14.5 0.00 0.00 0.00 79 1014.8
20260905215517 30 45 6.4 14.5 0.00 0.00 0.00 78 1014.8
20260905215017 30 68 9.7 24.1 0.00 0.00 0.00 78 1014.8
20260905214516 30 23 9.7 24.1 0.00 0.00 0.00 77 1014.9
20260905214017 30 45 8.0 19.3 0.00 0.00 0.00 77 1015.0
20260905213516 31 45 8.0 17.7 0.00 0.00 0.00 76 1015.0
20260905213017 31 45 6.4 14.5 0.00 0.00 0.00 77 1014.9
20260905212517 31 45 6.4 11.3 0.00 0.00 0.00 76 1015.0
20260905212017 31 68 6.4 19.3 0.00 0.00 0.00 75 1014.9
20260905211517 31 45 4.8 9.7 0.00 0.00 0.00 74 1015.0
20260905211016 31 45 8.0 20.9 0.00 0.00 0.00 74 1015.0
20260905210537 31 23 6.4 14.5 0.00 0.00 0.00 74 1015.0
20260905210016 31 23 6.4 16.1 0.00 0.00 0.00 75 1015.1
20260905205517 31 45 8.0 16.1 0.00 0.00 0.00 75 1015.1
20260905205016 31 23 6.4 14.5 0.00 0.00 0.00 75 1015.1
20260905204517 31 23 6.4 12.9 0.00 0.00 0.00 75 1014.9
20260905204036 31 45 8.0 12.9 0.00 0.00 0.00 75 1015.0
20260905203537 31 23 4.8 11.3 0.00 0.00 0.00 75 1015.0
20260905203016 31 23 6.4 14.5 0.00 0.00 0.00 74 1015.2
20260905202516 31 23 4.8 16.1 0.00 0.00 0.00 76 1015.2
20260905202016 31 0 1.6 11.3 0.00 0.00 0.00 76 1015.2
20260905201517 31 45 6.4 14.5 0.00 0.00 0.00 75 1015.1
20260905201017 31 45 4.8 11.3 0.00 0.00 0.00 74 1015.0
20260905200536 32 23 1.6 6.4 0.00 0.00 0.00 74 1015.0
20260905200037 32 23 4.8 16.1 0.00 0.00 0.00 73 1015.1
20260905195516 32 338 1.6 9.7 0.00 0.00 0.00 75 1015.1
20260905195016 32 23 6.4 12.9 0.00 0.00 0.00 74 1015.1
20260905194516 32 45 4.8 9.7 0.00 0.00 0.00 74 1015.3
20260905194017 32 45 3.2 11.3 0.00 0.00 0.00 76 1015.1
20260905193536 31 45 6.4 17.7 0.00 0.00 0.00 76 1015.4
20260905193016 31 45 4.8 12.9 0.00 0.00 0.00 76 1015.6
20260905192516 31 45 6.4 11.3 0.00 0.00 0.00 76 1015.7
20260905192016 31 23 4.8 11.3 0.00 0.00 0.00 77 1015.7
20260905191516 31 45 6.4 14.5 0.00 0.00 0.00 77 1015.7
20260905191016 31 45 4.8 12.9 0.00 0.00 0.00 77 1015.7
20260905190517 31 45 6.4 16.1 0.00 0.00 0.00 77 1015.7
20260905190016 31 45 4.8 9.7 0.00 0.00 0.00 76 1015.7
20260905185516 31 45 6.4 11.3 0.00 0.00 0.00 76 1015.6
20260905185016 31 45 4.8 9.7 0.00 0.00 0.00 76 1015.6
20260905184516 31 45 4.8 11.3 0.00 0.00 0.00 76 1015.8
20260905184016 31 45 6.4 12.9 0.00 0.00 0.00 77 1015.8
20260905183516 31 23 4.8 14.5 0.00 0.00 0.00 76 1015.8
20260905183017 31 23 1.6 6.4 0.00 0.00 0.00 76 1015.7
20260905182516 31 45 1.6 8.0 0.00 0.00 0.00 77 1015.8
20260905182036 31 68 3.2 11.3 0.00 0.00 0.00 76 1015.7
20260905181517 31 90 3.2 8.0 0.00 0.00 0.00 76 1015.6
20260905181016 31 68 3.2 11.3 0.00 0.00 0.00 75 1015.7
20260905180517 31 45 4.8 12.9 0.00 0.00 0.00 77 1015.8
20260905180036 31 45 1.6 8.0 0.00 0.00 0.00 77 1015.7
20260905175517 31 45 4.8 11.3 0.00 0.00 0.00 77 1015.7
20260905175016 31 45 3.2 8.0 0.00 0.00 0.00 78 1015.6
20260905174516 31 45 4.8 9.7 0.00 0.00 0.00 78 1015.7
20260905174036 31 45 6.4 14.5 0.00 0.00 0.00 78 1015.7
20260905173516 31 45 3.2 11.3 0.00 0.00 0.00 77 1015.6
20260905173036 31 23 3.2 6.4 0.00 0.00 0.00 77 1015.7
20260905172516 31 23 4.8 9.7 0.00 0.00 0.00 77 1015.7
20260905172036 30 68 4.8 12.9 0.00 0.00 0.00 78 1015.8
20260905171516 30 68 6.4 12.9 0.00 0.00 0.00 77 1015.8
20260905171036 31 68 4.8 11.3 0.00 0.00 0.00 77 1015.8
20260905170516 30 23 3.2 8.0 0.00 0.00 0.00 78 1015.9
20260905170016 30 45 4.8 12.9 0.00 0.00 0.00 78 1016.0
20260905165516 30 45 3.2 8.0 0.00 0.00 0.00 78 1015.9
20260905165016 30 45 4.8 11.3 0.00 0.00 0.00 77 1016.0
20260905164516 30 45 4.8 12.9 0.00 0.00 0.00 77 1016.1
20260905164016 30 45 6.4 12.9 0.00 0.00 0.00 78 1016.1
20260905163516 30 45 6.4 12.9 0.00 0.00 0.00 79 1016.0
20260905163016 30 68 3.2 8.0 0.00 0.00 0.00 79 1016.1
20260905162516 30 45 6.4 16.1 0.00 0.00 0.00 78 1016.1
20260905162017 30 45 6.4 12.9 0.00 0.00 0.00 78 1016.2
20260905161516 30 45 6.4 16.1 0.00 0.00 0.00 78 1016.1
20260905161016 30 45 6.4 14.5 0.00 0.00 0.00 78 1016.1
20260905160516 30 45 4.8 11.3 0.00 0.00 0.00 78 1016.0
20260905160016 30 68 4.8 12.9 0.00 0.00 0.00 77 1016.1
20260905155516 30 45 3.2 11.3 0.00 0.00 0.00 77 1016.0
20260905155036 30 45 4.8 9.7 0.00 0.00 0.00 78 1016.0
20260905154536 30 45 6.4 14.5 0.00 0.00 0.00 78 1016.0
20260905154016 30 45 6.4 12.9 0.00 0.00 0.00 78 1015.9
20260905153516 29 45 6.4 14.5 0.00 0.00 0.00 78 1016.0
20260905153016 29 68 3.2 11.3 0.00 0.00 0.00 79 1015.9
20260905152516 29 68 6.4 14.5 0.00 0.00 0.00 79 1015.8
20260905152016 29 45 4.8 14.5 0.00 0.00 0.00 79 1015.8
20260905151516 28 45 6.4 12.9 0.00 0.00 0.00 79 1015.8
20260905151016 28 45 6.4 14.5 0.00 0.00 0.00 80 1015.9
20260905150516 28 45 8.0 12.9 0.00 0.00 0.00 80 1015.9
20260905150016 28 45 4.8 9.7 0.00 0.00 0.00 82 1015.8
20260905145516 28 45 4.8 11.3 0.00 0.00 0.00 82 1015.6
20260905145016 28 45 6.4 17.7 0.00 0.00 0.00 83 1015.6
20260905144516 28 45 6.4 11.3 0.00 0.00 0.00 83 1015.6
20260905144016 27 23 4.8 11.3 0.00 0.00 0.00 84 1015.6
20260905143536 27 23 6.4 12.9 0.00 0.00 0.00 84 1015.6
20260905143036 27 23 4.8 9.7 0.00 0.00 0.00 85 1015.6
20260905142516 27 23 3.2 9.7 0.00 0.00 0.00 86 1015.5
20260905142016 27 23 4.8 12.9 0.00 0.00 0.00 86 1015.6
20260905141516 27 45 3.2 8.0 0.00 0.00 0.00 88 1015.4
20260905141036 27 45 4.8 8.0 0.00 0.00 0.00 88 1015.4
20260905140516 26 45 4.8 9.7 0.00 0.00 0.00 88 1015.3
20260905140016 26 23 3.2 9.7 0.00 0.00 0.00 88 1015.3
20260905135516 26 45 3.2 8.0 0.00 0.00 0.00 89 1015.1
20260905135036 26 45 4.8 9.7 0.00 0.00 0.00 89 1015.2
20260905134516 26 45 3.2 8.0 0.00 0.00 0.00 90 1015.0
20260905134036 26 45 4.8 11.3 0.00 0.00 0.00 90 1015.0
20260905133516 26 45 4.8 9.7 0.00 0.00 0.00 91 1015.0
20260905133016 26 45 1.6 4.8 0.00 0.00 0.00 90 1014.9
20260905132516 26 45 1.6 6.4 0.00 0.00 0.00 90 1015.0
20260905132016 26 45 1.6 4.8 0.00 0.00 0.00 90 1014.8
20260905131516 26 0.0 1.6 0.00 0.00 0.00 91 1014.7
20260905131016 25 0.0 3.2 0.00 0.00 0.00 92 1014.6
20260905130536 25 0.0 3.2 0.00 0.00 0.00 93 1014.7
20260905130016 25 0.0 1.6 0.00 0.00 0.00 93 1014.5
20260905125536 25 0.0 3.2 0.00 0.00 0.00 94 1014.4
20260905125016 25 0.0 3.2 0.00 0.00 0.00 94 1014.6
20260905124516 24 0.0 3.2 0.00 0.00 0.00 94 1014.5
20260905124016 24 0.0 3.2 0.00 0.00 0.00 95 1014.5
20260905123516 24 23 1.6 3.2 0.00 0.00 0.00 95 1014.5
20260905123016 23 45 1.6 6.4 0.00 0.00 0.00 95 1014.5
20260905122515 23 45 3.2 9.7 0.00 0.00 0.00 96 1014.5
20260905122036 23 0.0 3.2 0.00 0.00 0.00 97 1014.5
20260905121515 23 0.0 3.2 0.00 0.00 0.00 97 1014.4
20260905121015 23 0.0 1.6 0.00 0.00 0.00 97 1014.4
20260905120516 23 0.0 1.6 0.00 0.00 0.00 97 1014.3
20260905120016 23 0.0 1.6 0.00 0.00 0.00 97 1014.3
20260905115516 23 0.0 1.6 0.00 0.00 0.00 97 1014.2
20260905115016 23 0.0 1.6 0.00 0.00 0.00 97 1013.7
20260905114516 23 0.0 0.0 0.00 0.00 0.00 97 1013.9
20260905114016 23 0.0 0.0 0.00 0.00 0.00 97 1013.7
20260905113516 23 0.0 0.0 0.00 0.00 0.00 97 1013.6
20260905113035 23 0.0 0.0 0.00 0.00 0.00 97 1013.8
20260905112516 23 0.0 0.0 0.00 0.00 0.00 97 1013.9
20260905112016 23 0.0 0.0 0.00 0.00 0.00 97 1013.7
20260905111556 23 0.0 0.0 0.00 0.00 0.00 97 1013.4
20260905111016 23 0.0 0.0 0.00 0.00 0.00 97 1013.3
20260905110516 23 0.0 0.0 0.00 0.00 0.00 97 1013.5
20260905110016 23 0.0 0.0 0.00 0.00 0.00 97 1013.4
20260905105515 23 0.0 0.0 0.00 0.00 0.00 97 1013.4
20260905105016 23 0.0 0.0 0.00 0.00 0.00 97 1013.3
20260905104536 23 0.0 0.0 0.00 0.00 0.00 97 1013.4
20260905104015 23 0.0 0.0 0.00 0.00 0.00 97 1013.3
20260905103515 23 0.0 0.0 0.00 0.00 0.00 97 1013.4
20260905103015 23 0.0 1.6 0.00 0.00 0.00 96 1013.5
20260905102516 23 0.0 1.6 0.00 0.00 0.00 97 1013.4
20260905102015 23 0.0 1.6 0.00 0.00 0.00 97 1013.5
20260905101515 23 0.0 1.6 0.00 0.00 0.00 97 1013.6
20260905101035 23 0.0 0.0 0.00 0.00 0.00 97 1013.5
20260905100515 23 0.0 0.0 0.00 0.00 0.00 97 1013.5
20260905100035 23 0.0 0.0 0.00 0.00 0.00 96 1013.6
20260905095535 23 0.0 0.0 0.00 0.00 0.00 96 1013.6
20260905095015 23 0.0 0.0 0.00 0.00 0.00 96 1013.6
20260905094535 23 0.0 0.0 0.00 0.00 0.00 96 1013.7
20260905094035 23 0.0 0.0 0.00 0.00 0.00 96 1013.7
20260905093515 23 0.0 0.0 0.00 0.00 0.00 96 1013.7
20260905093015 24 0.0 0.0 0.00 0.00 0.00 96 1013.8
20260905092516 24 0.0 0.0 0.00 0.00 0.00 96 1013.8
20260905092015 24 0.0 0.0 0.00 0.00 0.00 96 1013.9
20260905091515 24 0.0 0.0 0.00 0.00 0.00 95 1013.9